Time,TemperatureF,DewpointF,PressureIn,WindDirection,WindDirectionDegrees,WindSpeedMPH,WindSpeedGustMPH,Humidity,HourlyPrecipIn,Conditions,Clouds,dailyrainin,SoftwareType,DateUTC
2013-02-08 00:00:00,54.6,49.2,30.03,SW,223,7.0,18.0,82,0.00,,---,0.00,VWS V14.01,2013-02-08 08:00:00,
2013-02-08 00:29:00,53.7,47.3,30.03,SW,234,11.0,18.0,79,0.00,,---,0.00,VWS V14.01,2013-02-08 08:29:00,
2013-02-08 00:30:00,53.7,47.3,30.03,SW,234,11.0,18.0,79,0.00,,---,0.00,VWS V14.01,2013-02-08 08:30:00,
2013-02-08 00:59:00,53.7,47.0,30.03,SW,231,6.0,20.0,78,0.00,,---,0.00,VWS V14.01,2013-02-08 08:59:00,
2013-02-08 01:00:00,53.7,47.0,30.03,SW,231,6.0,20.0,78,0.00,,---,0.00,VWS V14.01,2013-02-08 09:00:00,
2013-02-08 01:29:00,53.4,46.0,30.03,SW,224,7.0,21.0,76,0.00,,---,0.00,VWS V14.01,2013-02-08 09:29:00,
2013-02-08 01:30:00,53.4,46.0,30.03,SW,224,7.0,21.0,76,0.00,,---,0.00,VWS V14.01,2013-02-08 09:30:00,
2013-02-08 01:59:00,52.8,45.1,30.03,WSW,241,8.0,24.0,75,0.00,,---,0.00,VWS V14.01,2013-02-08 09:59:00,
2013-02-08 02:00:00,52.8,45.1,30.03,WSW,241,8.0,24.0,75,0.00,,---,0.00,VWS V14.01,2013-02-08 10:00:00,
2013-02-08 02:29:00,52.4,43.7,30.02,SW,225,8.0,25.0,72,0.00,,---,0.00,VWS V14.01,2013-02-08 10:29:00,
2013-02-08 02:30:00,52.4,43.7,30.02,SW,225,8.0,25.0,72,0.00,,---,0.00,VWS V14.01,2013-02-08 10:30:00,
2013-02-08 03:00:00,52.3,42.1,30.02,WSW,248,10.0,23.0,68,0.00,,---,0.00,VWS V14.01,2013-02-08 11:00:00,
2013-02-08 03:30:00,51.7,41.9,30.01,SW,225,8.0,17.0,69,0.00,,---,0.00,VWS V14.01,2013-02-08 11:30:00,
2013-02-08 04:00:00,51.1,42.0,30.01,SW,225,5.0,14.0,71,0.00,,---,0.00,VWS V14.01,2013-02-08 12:00:00,
2013-02-08 04:30:00,51.8,43.4,30.01,SW,225,7.0,16.0,73,0.00,,---,0.00,VWS V14.01,2013-02-08 12:30:00,
2013-02-08 05:00:00,52.1,43.4,30.01,WSW,248,9.0,21.0,72,0.00,,---,0.00,VWS V14.01,2013-02-08 13:00:00,
2013-02-08 05:30:00,52.4,42.9,30.01,SW,225,9.0,21.0,70,0.00,,---,0.00,VWS V14.01,2013-02-08 13:30:00,
2013-02-08 06:00:00,52.2,42.7,30.01,WSW,248,8.0,18.0,70,0.00,,---,0.00,VWS V14.01,2013-02-08 14:00:00,
2013-02-08 06:30:00,52.2,42.7,30.02,WSW,248,10.0,24.0,70,0.00,,---,0.00,VWS V14.01,2013-02-08 14:30:00,
2013-02-08 07:00:00,51.9,43.5,30.03,WSW,248,9.0,17.0,73,0.00,,---,0.00,VWS V14.01,2013-02-08 15:00:00,
2013-02-08 07:30:00,52.0,44.0,30.04,SW,225,8.0,19.0,74,0.00,,---,0.00,VWS V14.01,2013-02-08 15:30:00,
2013-02-08 08:00:00,52.5,44.1,30.04,SW,225,6.0,16.0,73,0.00,,---,0.00,VWS V14.01,2013-02-08 16:00:00,
2013-02-08 08:30:00,52.9,44.5,30.03,WSW,248,6.0,17.0,73,0.00,,---,0.00,VWS V14.01,2013-02-08 16:30:00,
2013-02-08 09:00:00,53.2,43.7,30.03,WSW,248,6.0,16.0,70,0.00,,---,0.00,VWS V14.01,2013-02-08 17:00:00,
2013-02-08 09:30:00,56.1,44.1,30.03,SW,225,6.0,15.0,64,0.00,,---,0.00,VWS V14.01,2013-02-08 17:30:00,
2013-02-08 10:00:00,56.9,44.5,30.02,SSW,202,9.0,20.0,63,0.00,,---,0.00,VWS V14.01,2013-02-08 18:00:00,
2013-02-08 10:30:00,47.8,44.7,30.06,WSW,248,10.0,27.0,89,0.17,,---,0.17,VWS V14.01,2013-02-08 18:30:00,
2013-02-08 11:00:00,48.3,46.9,30.03,West,270,3.0,14.0,95,0.19,,---,0.19,VWS V14.01,2013-02-08 19:00:00,
2013-02-08 11:30:00,50.4,46.1,30.02,South,180,6.0,13.0,85,0.19,,---,0.19,VWS V14.01,2013-02-08 19:30:00,
2013-02-08 12:00:00,50.5,46.8,30.01,SSE,158,7.0,12.0,87,0.03,,---,0.20,VWS V14.01,2013-02-08 20:00:00,
2013-02-08 12:30:00,50.6,46.9,29.99,SSW,202,7.0,14.0,87,0.01,,---,0.20,VWS V14.01,2013-02-08 20:30:00,
2013-02-08 13:00:00,50.0,46.9,29.98,SSW,202,6.0,13.0,89,0.03,,---,0.22,VWS V14.01,2013-02-08 21:00:00,
2013-02-08 13:30:00,51.7,47.0,29.96,SSW,202,7.0,19.0,84,0.02,,---,0.22,VWS V14.01,2013-02-08 21:30:00,
2013-02-08 14:00:00,53.3,46.6,29.95,SW,225,8.0,18.0,78,0.02,,---,0.22,VWS V14.01,2013-02-08 22:00:00,
2013-02-08 14:30:00,52.2,44.2,29.96,SW,225,10.0,20.0,74,0.00,,---,0.22,VWS V14.01,2013-02-08 22:30:00,
2013-02-08 15:00:00,52.2,42.0,29.95,SW,225,10.0,25.0,68,0.00,,---,0.22,VWS V14.01,2013-02-08 23:00:00,
2013-02-08 15:30:00,52.1,42.6,29.94,SW,225,10.0,20.0,70,0.00,,---,0.22,VWS V14.01,2013-02-08 23:30:00,
2013-02-08 16:00:00,51.2,41.0,29.94,SSW,206,7.0,21.0,68,0.00,,---,0.22,VWS V14.01,2013-02-09 00:00:00,
2013-02-08 16:29:00,52.3,42.5,29.94,SSW,209,9.0,19.0,69,0.00,,---,0.22,VWS V14.01,2013-02-09 00:29:00,
2013-02-08 16:30:00,52.3,42.5,29.94,SSW,209,9.0,19.0,69,0.00,,---,0.22,VWS V14.01,2013-02-09 00:30:00,
2013-02-08 16:59:00,51.2,41.0,29.94,SSW,206,7.0,21.0,68,0.00,,---,0.22,VWS V14.01,2013-02-09 00:59:00,
2013-02-08 17:00:00,51.2,41.0,29.94,SSW,206,7.0,21.0,68,0.00,,---,0.22,VWS V14.01,2013-02-09 01:00:00,
2013-02-08 17:29:00,49.9,43.0,29.94,South,188,8.0,11.0,77,0.00,,---,0.22,VWS V14.01,2013-02-09 01:29:00,
2013-02-08 17:30:00,49.9,43.0,29.94,South,188,8.0,11.0,77,0.00,,---,0.22,VWS V14.01,2013-02-09 01:30:00,
2013-02-08 17:59:00,48.3,44.0,29.94,SW,231,2.0,12.0,85,0.02,,---,0.24,VWS V14.01,2013-02-09 01:59:00,
2013-02-08 18:00:00,48.3,44.0,29.94,SW,231,2.0,12.0,85,0.02,,---,0.24,VWS V14.01,2013-02-09 02:00:00,
2013-02-08 18:29:00,47.4,44.3,29.94,SSW,197,8.0,11.0,89,0.02,,---,0.24,VWS V14.01,2013-02-09 02:29:00,
2013-02-08 18:30:00,47.4,44.3,29.94,SSW,197,8.0,11.0,89,0.02,,---,0.24,VWS V14.01,2013-02-09 02:30:00,
2013-02-08 18:59:00,47.1,44.3,29.94,SSW,204,1.0,9.0,90,0.03,,---,0.25,VWS V14.01,2013-02-09 02:59:00,
2013-02-08 19:00:00,47.1,44.3,29.94,SSW,204,1.0,9.0,90,0.03,,---,0.25,VWS V14.01,2013-02-09 03:00:00,
2013-02-08 19:29:00,46.9,44.4,29.93,South,186,3.0,5.0,91,0.02,,---,0.26,VWS V14.01,2013-02-09 03:29:00,
2013-02-08 19:30:00,46.9,44.4,29.93,South,186,3.0,5.0,91,0.02,,---,0.26,VWS V14.01,2013-02-09 03:30:00,
2013-02-08 19:59:00,46.7,44.5,29.93,SSW,192,2.0,6.0,92,0.02,,---,0.26,VWS V14.01,2013-02-09 03:59:00,
2013-02-08 20:00:00,46.7,44.5,29.93,SSW,192,2.0,6.0,92,0.02,,---,0.26,VWS V14.01,2013-02-09 04:00:00,
2013-02-08 20:29:00,46.7,44.5,29.94,SSW,192,3.0,5.0,92,0.01,,---,0.26,VWS V14.01,2013-02-09 04:29:00,
2013-02-08 20:30:00,46.7,44.5,29.94,SSW,192,3.0,5.0,92,0.01,,---,0.26,VWS V14.01,2013-02-09 04:30:00,
2013-02-08 20:59:00,46.5,44.3,29.94,South,188,1.0,4.0,92,0.00,,---,0.26,VWS V14.01,2013-02-09 04:59:00,
2013-02-08 21:00:00,46.5,44.3,29.94,South,188,1.0,4.0,92,0.00,,---,0.26,VWS V14.01,2013-02-09 05:00:00,
2013-02-08 21:29:00,45.9,44.0,29.95,SSW,194,2.0,3.0,93,0.00,,---,0.26,VWS V14.01,2013-02-09 05:29:00,
2013-02-08 21:30:00,45.9,44.0,29.95,SSW,194,2.0,3.0,93,0.00,,---,0.26,VWS V14.01,2013-02-09 05:30:00,
2013-02-08 22:00:00,44.9,43.0,29.95,South,180,2.0,4.0,93,0.00,,---,0.26,VWS V14.01,2013-02-09 06:00:00,
2013-02-08 22:30:00,44.6,43.3,29.96,South,180,3.0,5.0,95,0.00,,---,0.26,VWS V14.01,2013-02-09 06:30:00,
2013-02-08 23:00:00,43.9,42.6,29.97,NW,315,3.0,5.0,95,0.00,,---,0.26,VWS V14.01,2013-02-09 07:00:00,
2013-02-08 23:30:00,43.4,42.1,29.98,NNW,338,3.0,4.0,95,0.00,,---,0.26,VWS V14.01,2013-02-09 07:30:00,